QPF
0.02 0.01 0.01 0.01 0.02 0.02 0.02 0.02 0.02 0.01 0.01 0.01 0.01 0.00 0.01 0.01 0.00 0.00 0.01 0.02 0.03 0.04 0.03 0.02 0.01 0.01 0.01 0.01 0.01 0.02 0.02 0.02 0.01 0.01 0.01 0.01 0.01 0.01 0.00 0.00 0.01 0.01 0.01
0.02 0.01 0.01 0.01 0.02 0.02 0.01 0.02 0.03 0.02 0.02 0.01 0.01 0.00 0.01 0.01 0.01 0.01 0.01 0.02 0.03 0.03 0.03 0.02 0.02 0.01 0.02 0.02 0.01 0.02 0.02 0.02 0.01 0.01 0.01 0.01 0.01 0.01 0.01 0.00 0.01 0.01 0.01
0.01 0.01 0.01 0.02 0.02 0.02 0.02 0.02 0.03 0.02 0.02 0.01 0.01 0.01 0.02 0.02 0.02 0.02 0.01 0.01 0.02 0.03 0.04 0.03 0.03 0.02 0.02 0.03 0.02 0.02 0.02 0.01 0.01 0.01 0.01 0.01 0.01 0.01 0.01 0.01 0.01 0.01 0.00
0.01 0.01 0.02 0.03 0.03 0.03 0.02 0.02 0.02 0.03 0.04 0.03 0.02 0.02 0.03 0.04 0.02 0.02 0.03 0.02 0.01 0.01 0.03 0.04 0.03 0.03 0.03 0.03 0.03 0.03 0.03 0.01 0.01 0.01 0.01 0.01 0.00 0.00 0.01 0.01 0.01 0.01 0.01
0.04 0.03 0.02 0.03 0.04 0.04 0.02 0.02 0.02 0.04 0.04 0.04 0.04 0.05 0.05 0.05 0.03 0.03 0.02 0.02 0.02 0.01 0.01 0.03 0.04 0.04 0.03 0.04 0.04 0.05 0.04 0.03 0.02 0.01 0.01 0.01 0.01 0.01 0.00 0.00 0.01 0.01 0.01
0.07 0.06 0.04 0.05 0.05 0.04 0.02 0.03 0.02 0.03 0.04 0.05 0.05 0.05 0.04 0.04 0.04 0.03 0.02 0.02 0.02 0.01 0.01 0.02 0.02 0.03 0.03 0.04 0.06 0.06 0.06 0.06 0.05 0.04 0.03 0.03 0.02 0.01 0.01 0.01 0.01 0.01 0.01
0.09 0.08 0.08 0.08 0.07 0.05 0.04 0.05 0.04 0.04 0.04 0.04 0.04 0.04 0.04 0.03 0.03 0.04 0.03 0.03 0.03 0.02 0.03 0.04 0.04 0.04 0.04 0.04 0.05 0.06 0.07 0.08 0.07 0.07 0.06 0.06 0.05 0.04 0.04 0.03 0.02 0.01 0.01
0.11 0.11 0.11 0.09 0.09 0.07 0.07 0.07 0.06 0.04 0.03 0.03 0.04 0.04 0.03 0.02 0.02 0.03 0.03 0.03 0.04 0.03 0.03 0.04 0.04 0.04 0.05 0.04 0.03 0.04 0.06 0.06 0.07 0.08 0.09 0.09 0.10 0.09 0.08 0.06 0.04 0.03 0.03
0.14 0.14 0.13 0.09 0.08 0.07 0.05 0.05 0.06 0.05 0.03 0.04 0.05 0.06 0.04 0.02 0.02 0.02 0.02 0.03 0.04 0.04 0.04 0.05 0.06 0.07 0.05 0.05 0.05 0.05 0.05 0.06 0.07 0.09 0.10 0.12 0.14 0.13 0.13 0.11 0.08 0.06 0.06
0.12 0.14 0.13 0.10 0.07 0.06 0.05 0.06 0.06 0.06 0.05 0.06 0.05 0.04 0.04 0.03 0.02 0.02 0.02 0.02 0.02 0.03 0.05 0.06 0.06 0.08 0.09 0.09 0.09 0.08 0.06 0.06 0.07 0.09 0.11 0.11 0.11 0.12 0.12 0.11 0.09 0.07 0.06
0.10 0.09 0.09 0.10 0.09 0.07 0.07 0.07 0.06 0.06 0.07 0.08 0.07 0.05 0.04 0.04 0.04 0.02 0.02 0.01 0.02 0.03 0.05 0.08 0.09 0.09 0.08 0.08 0.06 0.06 0.07 0.07 0.08 0.08 0.09 0.10 0.11 0.12 0.12 0.12 0.11 0.10 0.09
0.08 0.06 0.06 0.08 0.09 0.10 0.10 0.09 0.07 0.05 0.05 0.05 0.06 0.08 0.08 0.06 0.03 0.02 0.02 0.01 0.02 0.03 0.05 0.07 0.08 0.08 0.08 0.06 0.05 0.05 0.06 0.08 0.08 0.08 0.08 0.09 0.11 0.12 0.13 0.14 0.13 0.14 0.15
0.06 0.04 0.03 0.05 0.07 0.07 0.09 0.10 0.08 0.06 0.05 0.05 0.07 0.09 0.10 0.07 0.07 0.07 0.06 0.04 0.04 0.05 0.07 0.07 0.08 0.09 0.07 0.06 0.06 0.06 0.06 0.08 0.08 0.09 0.10 0.11 0.13 0.14 0.15 0.16 0.17 0.18 0.18
0.06 0.05 0.05 0.05 0.05 0.04 0.05 0.07 0.06 0.06 0.06 0.06 0.08 0.10 0.10 0.11 0.14 0.15 0.13 0.11 0.09 0.08 0.08 0.07 0.08 0.09 0.07 0.06 0.08 0.09 0.08 0.09 0.09 0.09 0.11 0.14 0.17 0.19 0.21 0.20 0.21 0.17 0.14
0.05 0.05 0.06 0.05 0.03 0.03 0.04 0.05 0.05 0.05 0.06 0.07 0.08 0.09 0.10 0.10 0.10 0.10 0.11 0.13 0.13 0.10 0.09 0.09 0.09 0.10 0.11 0.09 0.09 0.09 0.09 0.10 0.12 0.13 0.16 0.18 0.18 0.17 0.17 0.15 0.13 0.12 0.11
0.05 0.05 0.05 0.04 0.03 0.02 0.03 0.04 0.04 0.06 0.06 0.06 0.06 0.06 0.07 0.06 0.06 0.07 0.09 0.11 0.13 0.12 0.10 0.09 0.10 0.12 0.12 0.11 0.11 0.10 0.12 0.15 0.17 0.19 0.18 0.17 0.18 0.18 0.17 0.17 0.17 0.16 0.14
0.06 0.06 0.05 0.04 0.02 0.03 0.03 0.02 0.03 0.05 0.04 0.04 0.06 0.06 0.05 0.05 0.05 0.06 0.07 0.07 0.09 0.12 0.12 0.11 0.13 0.14 0.15 0.16 0.16 0.14 0.13 0.14 0.16 0.17 0.16 0.18 0.21 0.22 0.22 0.22 0.20 0.19 0.19
0.07 0.07 0.07 0.05 0.04 0.04 0.04 0.02 0.03 0.03 0.02 0.03 0.05 0.05 0.04 0.06 0.06 0.05 0.05 0.07 0.08 0.09 0.12 0.15 0.17 0.18 0.19 0.19 0.16 0.13 0.13 0.13 0.14 0.16 0.16 0.18 0.20 0.22 0.21 0.19 0.16 0.15 0.14
0.04 0.05 0.08 0.09 0.09 0.09 0.06 0.04 0.04 0.02 0.02 0.03 0.04 0.03 0.03 0.05 0.06 0.04 0.04 0.05 0.06 0.08 0.10 0.11 0.12 0.13 0.13 0.13 0.12 0.11 0.11 0.12 0.12 0.12 0.13 0.16 0.17 0.18 0.17 0.16 0.14 0.12 0.11
0.02 0.03 0.05 0.06 0.07 0.08 0.07 0.06 0.05 0.04 0.04 0.06 0.06 0.03 0.02 0.02 0.02 0.03 0.03 0.04 0.07 0.09 0.09 0.09 0.08 0.08 0.07 0.08 0.08 0.08 0.08 0.08 0.08 0.09 0.11 0.12 0.13 0.14 0.14 0.14 0.13 0.13 0.12
0.02 0.02 0.01 0.02 0.02 0.02 0.03 0.04 0.04 0.05 0.06 0.07 0.04 0.01 0.01 0.01 0.01 0.02 0.02 0.03 0.04 0.05 0.05 0.06 0.06 0.08 0.09 0.08 0.08 0.08 0.07 0.07 0.08 0.09 0.10 0.10 0.10 0.10 0.11 0.11 0.12 0.12 0.12
0.01 0.01 0.01 0.01 0.01 0.01 0.02 0.04 0.04 0.04 0.05 0.04 0.03 0.02 0.02 0.02 0.02 0.03 0.04 0.04 0.04 0.04 0.05 0.07 0.10 0.11 0.10 0.08 0.07 0.08 0.07 0.07 0.08 0.08 0.09 0.10 0.11 0.10 0.10 0.10 0.10 0.10 0.10
0.01 0.01 0.00 0.00 0.01 0.02 0.02 0.03 0.03 0.03 0.03 0.03 0.03 0.03 0.02 0.02 0.02 0.01 0.02 0.02 0.02 0.03 0.03 0.03 0.04 0.05 0.05 0.05 0.06 0.07 0.07 0.07 0.08 0.08 0.07 0.09 0.09 0.10 0.11 0.10 0.10 0.08 0.07
0.01 0.00 0.00 0.00 0.00 0.01 0.02 0.02 0.03 0.03 0.03 0.03 0.03 0.03 0.03 0.02 0.01 0.01 0.01 0.01 0.01 0.01 0.02 0.02 0.02 0.03 0.04 0.04 0.05 0.06 0.08 0.08 0.09 0.09 0.09 0.09 0.09 0.09 0.08 0.08 0.08 0.07 0.06
0.01 0.00 0.00 0.00 0.00 0.01 0.01 0.02 0.03 0.04 0.05 0.04 0.03 0.02 0.02 0.02 0.01 0.01 0.01 0.01 0.01 0.01 0.02 0.02 0.02 0.02 0.03 0.04 0.05 0.06 0.07 0.09 0.11 0.11 0.10 0.09 0.09 0.09 0.08 0.08 0.08 0.08 0.06
0.01 0.01 0.01 0.00 0.01 0.01 0.01 0.01 0.01 0.01 0.01 0.01 0.01 0.01 0.01 0.01 0.01 0.01 0.01 0.01 0.01 0.01 0.01 0.02 0.02 0.02 0.02 0.03 0.04 0.05 0.07 0.10 0.11 0.12 0.09 0.08 0.08 0.08 0.09 0.09 0.08 0.07 0.06
MSLP
1017.97 1018.08 1018.12 1018.10 1018.07 1018.05 1018.05 1018.10 1018.19 1018.31 1018.43 1018.55 1018.65 1018.72 1018.80 1018.88 1018.98 1019.13 1019.31 1019.52 1019.74 1019.95 1020.14 1020.29 1020.40 1020.49 1020.57 1020.66 1020.77 1020.92 1021.09 1021.28 1021.49 1021.70 1021.89 1022.08 1022.26 1022.44 1022.62 1022.79 1022.97 1023.14 1023.30
1017.99 1018.12 1018.18 1018.19 1018.17 1018.16 1018.18 1018.23 1018.33 1018.46 1018.60 1018.74 1018.85 1018.94 1019.02 1019.08 1019.16 1019.27 1019.40 1019.56 1019.75 1019.94 1020.12 1020.27 1020.40 1020.51 1020.61 1020.70 1020.80 1020.92 1021.07 1021.24 1021.43 1021.63 1021.84 1022.04 1022.25 1022.45 1022.64 1022.83 1023.02 1023.19 1023.34
1017.89 1018.04 1018.13 1018.18 1018.20 1018.23 1018.27 1018.35 1018.47 1018.62 1018.79 1018.94 1019.08 1019.18 1019.25 1019.30 1019.34 1019.39 1019.46 1019.56 1019.69 1019.84 1019.99 1020.15 1020.29 1020.42 1020.53 1020.64 1020.75 1020.86 1020.99 1021.15 1021.32 1021.51 1021.72 1021.93 1022.15 1022.37 1022.58 1022.78 1022.97 1023.15 1023.31
1017.68 1017.86 1018.00 1018.10 1018.18 1018.26 1018.35 1018.46 1018.61 1018.78 1018.97 1019.15 1019.30 1019.41 1019.48 1019.51 1019.51 1019.50 1019.50 1019.52 1019.58 1019.66 1019.78 1019.92 1020.06 1020.21 1020.34 1020.47 1020.59 1020.71 1020.84 1020.98 1021.13 1021.31 1021.51 1021.72 1021.95 1022.17 1022.39 1022.61 1022.80 1022.99 1023.15
1017.41 1017.62 1017.81 1017.98 1018.12 1018.26 1018.39 1018.54 1018.72 1018.91 1019.12 1019.32 1019.49 1019.61 1019.68 1019.69 1019.66 1019.59 1019.52 1019.46 1019.43 1019.45 1019.52 1019.62 1019.76 1019.91 1020.06 1020.21 1020.34 1020.47 1020.59 1020.72 1020.87 1021.03 1021.21 1021.42 1021.63 1021.86 1022.08 1022.30 1022.51 1022.70 1022.88
1017.12 1017.36 1017.60 1017.82 1018.03 1018.22 1018.40 1018.58 1018.78 1018.99 1019.21 1019.42 1019.61 1019.75 1019.82 1019.83 1019.77 1019.66 1019.53 1019.40 1019.30 1019.24 1019.25 1019.31 1019.42 1019.57 1019.72 1019.88 1020.03 1020.16 1020.28 1020.40 1020.53 1020.67 1020.83 1021.01 1021.22 1021.43 1021.66 1021.88 1022.09 1022.30 1022.49
1016.84 1017.09 1017.37 1017.64 1017.90 1018.14 1018.36 1018.56 1018.77 1018.99 1019.22 1019.44 1019.64 1019.80 1019.90 1019.92 1019.86 1019.73 1019.56 1019.38 1019.21 1019.09 1019.04 1019.05 1019.13 1019.25 1019.40 1019.55 1019.70 1019.83 1019.94 1020.04 1020.14 1020.25 1020.39 1020.54 1020.73 1020.93 1021.15 1021.37 1021.59 1021.81 1022.02
1016.58 1016.84 1017.13 1017.44 1017.74 1018.01 1018.25 1018.47 1018.68 1018.90 1019.13 1019.36 1019.59 1019.77 1019.90 1019.96 1019.92 1019.81 1019.63 1019.42 1019.21 1019.04 1018.93 1018.90 1018.93 1019.01 1019.14 1019.27 1019.39 1019.50 1019.59 1019.66 1019.73 1019.81 1019.90 1020.03 1020.19 1020.38 1020.59 1020.81 1021.05 1021.28 1021.51
1016.33 1016.58 1016.88 1017.21 1017.52 1017.80 1018.06 1018.28 1018.49 1018.70 1018.93 1019.18 1019.42 1019.65 1019.83 1019.93 1019.95 1019.87 1019.72 1019.51 1019.30 1019.10 1018.95 1018.87 1018.85 1018.89 1018.97 1019.06 1019.15 1019.22 1019.27 1019.30 1019.32 1019.36 1019.42 1019.52 1019.65 1019.82 1020.03 1020.26 1020.50 1020.75 1021.00
1016.09 1016.31 1016.61 1016.93 1017.24 1017.53 1017.77 1017.99 1018.19 1018.39 1018.62 1018.88 1019.16 1019.43 1019.66 1019.84 1019.92 1019.91 1019.80 1019.64 1019.43 1019.23 1019.06 1018.95 1018.89 1018.89 1018.92 1018.96 1019.00 1019.01 1019.01 1018.99 1018.96 1018.95 1018.97 1019.04 1019.15 1019.30 1019.50 1019.73 1019.99 1020.26 1020.53
1015.84 1016.04 1016.30 1016.61 1016.91 1017.17 1017.41 1017.60 1017.79 1017.98 1018.21 1018.47 1018.77 1019.09 1019.39 1019.63 1019.80 1019.86 1019.83 1019.72 1019.56 1019.38 1019.22 1019.09 1019.01 1018.96 1018.95 1018.94 1018.92 1018.88 1018.82 1018.75 1018.67 1018.61 1018.59 1018.62 1018.71 1018.85 1019.05 1019.29 1019.55 1019.83 1020.11
1015.60 1015.75 1015.98 1016.25 1016.51 1016.75 1016.96 1017.13 1017.29 1017.47 1017.69 1017.96 1018.28 1018.63 1018.98 1019.29 1019.54 1019.69 1019.74 1019.71 1019.61 1019.48 1019.34 1019.22 1019.13 1019.07 1019.03 1018.98 1018.92 1018.83 1018.73 1018.60 1018.48 1018.38 1018.33 1018.33 1018.39 1018.52 1018.71 1018.95 1019.22 1019.50 1019.78
1015.38 1015.49 1015.66 1015.88 1016.10 1016.29 1016.45 1016.59 1016.72 1016.87 1017.08 1017.34 1017.67 1018.05 1018.44 1018.81 1019.12 1019.35 1019.48 1019.53 1019.51 1019.44 1019.36 1019.28 1019.21 1019.16 1019.12 1019.06 1018.98 1018.87 1018.74 1018.58 1018.43 1018.30 1018.22 1018.20 1018.25 1018.36 1018.54 1018.77 1019.03 1019.30 1019.57
1015.22 1015.27 1015.38 1015.53 1015.69 1015.82 1015.94 1016.03 1016.12 1016.24 1016.42 1016.67 1016.99 1017.37 1017.78 1018.18 1018.55 1018.84 1019.04 1019.17 1019.23 1019.24 1019.23 1019.22 1019.21 1019.20 1019.19 1019.16 1019.10 1019.00 1018.87 1018.72 1018.56 1018.43 1018.33 1018.30 1018.33 1018.43 1018.60 1018.80 1019.04 1019.29 1019.52
1015.16 1015.15 1015.19 1015.26 1015.34 1015.41 1015.46 1015.50 1015.54 1015.62 1015.76 1015.98 1016.29 1016.65 1017.06 1017.48 1017.87 1018.20 1018.46 1018.65 1018.79 1018.89 1018.96 1019.03 1019.11 1019.18 1019.24 1019.28 1019.28 1019.24 1019.15 1019.03 1018.90 1018.78 1018.70 1018.67 1018.69 1018.78 1018.92 1019.10 1019.30 1019.51 1019.69
1015.23 1015.16 1015.13 1015.13 1015.13 1015.12 1015.10 1015.07 1015.07 1015.10 1015.20 1015.39 1015.65 1015.99 1016.38 1016.78 1017.17 1017.51 1017.81 1018.05 1018.25 1018.42 1018.59 1018.76 1018.94 1019.12 1019.29 1019.43 1019.53 1019.58 1019.58 1019.53 1019.46 1019.39 1019.34 1019.32 1019.34 1019.42 1019.53 1019.68 1019.84 1019.99 1020.12
1015.47 1015.34 1015.25 1015.17 1015.09 1015.01 1014.92 1014.84 1014.78 1014.77 1014.83 1014.97 1015.20 1015.50 1015.84 1016.21 1016.57 1016.91 1017.20 1017.47 1017.71 1017.94 1018.19 1018.45 1018.74 1019.04 1019.34 1019.61 1019.84 1020.02 1020.14 1020.20 1020.22 1020.22 1020.22 1020.23 1020.27 1020.34 1020.43 1020.53 1020.65 1020.74 1020.82
1015.87 1015.70 1015.55 1015.41 1015.27 1015.13 1014.99 1014.86 1014.75 1014.71 1014.73 1014.83 1015.01 1015.26 1015.56 1015.87 1016.19 1016.49 1016.76 1017.02 1017.28 1017.55 1017.85 1018.20 1018.58 1019.00 1019.43 1019.84 1020.21 1020.53 1020.78 1020.97 1021.10 1021.19 1021.26 1021.32 1021.38 1021.45 1021.53 1021.60 1021.67 1021.72 1021.74
1016.39 1016.21 1016.03 1015.85 1015.67 1015.49 1015.31 1015.15 1015.02 1014.94 1014.93 1015.00 1015.14 1015.34 1015.58 1015.84 1016.10 1016.34 1016.57 1016.80 1017.04 1017.32 1017.65 1018.05 1018.51 1019.02 1019.56 1020.10 1020.61 1021.06 1021.45 1021.77 1022.01 1022.20 1022.35 1022.47 1022.57 1022.65 1022.72 1022.77 1022.80 1022.81 1022.80
1016.99 1016.82 1016.64 1016.46 1016.27 1016.07 1015.87 1015.70 1015.55 1015.46 1015.44 1015.48 1015.59 1015.75 1015.93 1016.13 1016.32 1016.50 1016.67 1016.85 1017.05 1017.31 1017.64 1018.06 1018.56 1019.13 1019.75 1020.38 1020.99 1021.56 1022.07 1022.50 1022.85 1023.14 1023.37 1023.54 1023.68 1023.79 1023.87 1023.91 1023.93 1023.92 1023.88
1017.60 1017.47 1017.32 1017.16 1016.99 1016.80 1016.62 1016.44 1016.31 1016.21 1016.18 1016.21 1016.30 1016.42 1016.56 1016.70 1016.83 1016.95 1017.05 1017.16 1017.32 1017.53 1017.83 1018.23 1018.73 1019.33 1019.98 1020.66 1021.34 1021.99 1022.58 1023.10 1023.54 1023.90 1024.20 1024.44 1024.62 1024.76 1024.85 1024.91 1024.92 1024.91 1024.86
1018.15 1018.08 1018.00 1017.88 1017.75 1017.60 1017.44 1017.29 1017.17 1017.09 1017.06 1017.09 1017.16 1017.26 1017.37 1017.47 1017.55 1017.61 1017.65 1017.71 1017.80 1017.96 1018.21 1018.57 1019.04 1019.61 1020.26 1020.95 1021.65 1022.33 1022.97 1023.53 1024.03 1024.44 1024.79 1025.08 1025.30 1025.47 1025.60 1025.67 1025.70 1025.70 1025.66
1018.58 1018.59 1018.58 1018.54 1018.46 1018.36 1018.24 1018.13 1018.03 1017.97 1017.96 1017.99 1018.06 1018.15 1018.25 1018.32 1018.37 1018.39 1018.40 1018.40 1018.44 1018.55 1018.75 1019.05 1019.47 1019.99 1020.60 1021.26 1021.94 1022.60 1023.23 1023.81 1024.32 1024.76 1025.14 1025.46 1025.72 1025.92 1026.07 1026.18 1026.23 1026.24 1026.23
1018.86 1018.96 1019.03 1019.06 1019.05 1019.00 1018.93 1018.85 1018.78 1018.75 1018.75 1018.80 1018.88 1018.98 1019.07 1019.15 1019.19 1019.20 1019.19 1019.17 1019.18 1019.25 1019.40 1019.65 1020.01 1020.47 1021.01 1021.60 1022.22 1022.84 1023.43 1023.98 1024.47 1024.91 1025.30 1025.63 1025.91 1026.14 1026.31 1026.44 1026.52 1026.56 1026.56
1018.98 1019.17 1019.31 1019.41 1019.46 1019.47 1019.44 1019.39 1019.35 1019.34 1019.37 1019.43 1019.53 1019.65 1019.77 1019.86 1019.93 1019.95 1019.95 1019.94 1019.95 1020.01 1020.13 1020.34 1020.64 1021.03 1021.50 1022.02 1022.56 1023.10 1023.63 1024.12 1024.57 1024.98 1025.35 1025.67 1025.95 1026.20 1026.39 1026.54 1026.64 1026.69 1026.70
1019.00 1019.24 1019.45 1019.61 1019.71 1019.75 1019.76 1019.74 1019.73 1019.74 1019.79 1019.88 1020.01 1020.16 1020.31 1020.44 1020.55 1020.61 1020.65 1020.68 1020.71 1020.77 1020.89 1021.07 1021.34 1021.67 1022.07 1022.51 1022.96 1023.43 1023.87 1024.29 1024.68 1025.04 1025.38 1025.68 1025.95 1026.19 1026.39 1026.55 1026.65 1026.71 1026.73
Thickness
5741 5740 5740 5739 5740 5740 5739 5739 5739 5738 5738 5738 5737 5736 5735 5734 5732 5731 5729 5728 5727 5725 5724 5723 5721 5720 5718 5717 5715 5714 5712 5711 5710 5708 5707 5706 5705 5704 5703 5702 5701 5700 5699
5741 5740 5740 5740 5740 5740 5739 5739 5739 5738 5738 5738 5737 5736 5735 5734 5732 5731 5730 5728 5727 5726 5724 5723 5722 5720 5719 5717 5716 5714 5713 5711 5710 5708 5707 5706 5705 5704 5703 5702 5701 5700 5698
5742 5741 5740 5740 5740 5740 5739 5739 5738 5738 5738 5737 5736 5736 5735 5734 5733 5731 5730 5729 5727 5726 5725 5724 5722 5721 5720 5718 5717 5715 5714 5712 5710 5709 5708 5706 5705 5704 5703 5702 5701 5699 5698
5743 5741 5741 5741 5740 5740 5740 5739 5738 5736 5736 5736 5735 5735 5735 5734 5733 5732 5730 5729 5728 5727 5726 5725 5723 5722 5721 5719 5718 5716 5715 5713 5711 5710 5708 5707 5706 5705 5703 5702 5701 5699 5698
5743 5742 5741 5741 5740 5740 5739 5739 5738 5736 5734 5734 5735 5735 5735 5734 5734 5732 5731 5730 5729 5728 5727 5726 5724 5723 5721 5720 5719 5717 5715 5714 5712 5711 5709 5708 5707 5705 5704 5702 5701 5700 5698
5743 5743 5742 5741 5740 5739 5739 5738 5737 5736 5735 5734 5735 5734 5734 5735 5734 5733 5732 5731 5729 5728 5727 5726 5725 5724 5722 5721 5720 5719 5717 5715 5713 5711 5710 5709 5707 5706 5704 5703 5701 5700 5699
5744 5743 5743 5742 5741 5740 5739 5738 5737 5735 5734 5734 5731 5730 5732 5733 5733 5733 5732 5731 5730 5729 5728 5726 5725 5723 5722 5722 5721 5719 5717 5716 5714 5712 5711 5709 5708 5706 5705 5703 5702 5700 5699
5744 5743 5742 5742 5742 5740 5739 5738 5736 5734 5734 5734 5730 5726 5723 5726 5730 5733 5731 5730 5730 5729 5728 5727 5725 5724 5722 5721 5721 5719 5718 5716 5714 5713 5711 5710 5708 5706 5705 5703 5702 5700 5699
5744 5742 5742 5742 5742 5741 5739 5738 5737 5734 5732 5732 5731 5727 5720 5718 5723 5728 5729 5730 5729 5728 5727 5726 5725 5724 5722 5721 5720 5718 5717 5716 5714 5713 5711 5710 5708 5707 5705 5703 5701 5700 5698
5743 5742 5742 5742 5742 5741 5740 5739 5738 5736 5733 5730 5729 5729 5727 5725 5719 5719 5724 5726 5727 5726 5726 5725 5724 5723 5722 5720 5719 5718 5716 5715 5714 5712 5710 5709 5708 5706 5705 5703 5701 5700 5698
5743 5743 5742 5742 5741 5741 5740 5739 5738 5736 5734 5731 5729 5727 5725 5723 5722 5717 5716 5720 5722 5723 5724 5723 5722 5721 5721 5719 5718 5717 5716 5714 5713 5711 5709 5708 5707 5705 5704 5702 5701 5699 5697
5743 5742 5742 5741 5741 5740 5740 5739 5738 5736 5734 5732 5730 5728 5725 5722 5720 5717 5715 5716 5716 5719 5720 5720 5720 5719 5718 5717 5716 5715 5714 5712 5711 5709 5708 5706 5705 5703 5702 5700 5699 5697 5696
5741 5741 5741 5740 5740 5739 5739 5738 5737 5735 5733 5731 5729 5727 5726 5724 5723 5720 5716 5715 5714 5715 5715 5716 5716 5716 5715 5714 5713 5712 5711 5709 5708 5707 5705 5704 5702 5700 5699 5697 5696 5694 5693
5740 5740 5739 5739 5738 5737 5737 5736 5734 5733 5731 5729 5728 5726 5725 5724 5722 5720 5717 5714 5710 5710 5709 5710 5712 5711 5711 5709 5708 5707 5706 5705 5704 5703 5702 5700 5698 5696 5694 5693 5691 5689 5688
5739 5738 5738 5737 5736 5735 5734 5733 5731 5729 5728 5726 5725 5724 5722 5721 5720 5719 5717 5714 5709 5705 5705 5706 5706 5707 5706 5704 5703 5702 5700 5700 5699 5697 5696 5695 5692 5690 5689 5687 5685 5684 5682
5736 5735 5734 5733 5732 5731 5730 5729 5727 5725 5723 5722 5721 5720 5719 5718 5717 5716 5714 5711 5709 5705 5701 5702 5701 5701 5700 5699 5697 5695 5694 5692 5691 5690 5689 5687 5685 5683 5681 5679 5677 5675 5674
5733 5732 5730 5729 5728 5727 5725 5724 5722 5721 5719 5717 5716 5715 5714 5713 5712 5711 5709 5707 5705 5702 5698 5697 5696 5694 5692 5691 5689 5687 5685 5684 5682 5681 5680 5679 5677 5674 5672 5670 5668 5666 5664
5729 5727 5726 5724 5723 5722 5721 5719 5718 5716 5714 5712 5711 5709 5708 5707 5706 5705 5704 5702 5700 5698 5694 5690 5688 5686 5684 5682 5681 5679 5677 5675 5673 5671 5670 5668 5666 5664 5662 5660 5657 5655 5653
5724 5723 5721 5719 5717 5716 5715 5714 5712 5711 5709 5706 5705 5703 5702 5701 5700 5699 5698 5696 5694 5693 5689 5685 5681 5678 5675 5674 5672 5670 5668 5665 5664 5661 5660 5658 5655 5653 5651 5648 5646 5644 5641
5719 5717 5716 5714 5712 5711 5710 5708 5706 5705 5702 5700 5698 5697 5696 5695 5694 5693 5691 5689 5687 5685 5682 5678 5674 5670 5668 5666 5663 5661 5658 5655 5653 5651 5649 5646 5644 5641 5639 5637 5635 5633 5630
5714 5712 5710 5708 5707 5706 5704 5702 5700 5698 5695 5693 5691 5689 5689 5688 5687 5686 5684 5681 5679 5677 5674 5670 5666 5663 5660 5657 5654 5651 5648 5645 5642 5640 5637 5634 5632 5629 5627 5624 5623 5621 5619
5708 5706 5704 5702 5701 5699 5697 5696 5694 5691 5688 5685 5683 5681 5680 5678 5677 5676 5675 5673 5671 5668 5665 5662 5657 5654 5651 5648 5646 5643 5639 5637 5633 5629 5626 5622 5620 5617 5614 5612 5610 5609 5607
5701 5699 5696 5695 5693 5691 5690 5689 5687 5683 5680 5677 5675 5673 5672 5670 5668 5667 5665 5663 5660 5658 5655 5652 5648 5644 5642 5640 5638 5635 5631 5627 5622 5617 5615 5611 5607 5604 5601 5599 5597 5596 5594
5695 5692 5690 5688 5686 5684 5683 5681 5679 5676 5672 5669 5667 5665 5663 5661 5659 5657 5656 5652 5649 5646 5644 5641 5638 5635 5633 5631 5629 5626 5621 5617 5612 5607 5604 5600 5595 5591 5589 5586 5584 5583 5581
5688 5685 5683 5681 5679 5677 5675 5673 5671 5668 5664 5661 5658 5656 5654 5652 5650 5649 5646 5643 5639 5635 5633 5631 5628 5625 5623 5621 5618 5616 5612 5608 5602 5597 5592 5589 5583 5580 5576 5573 5571 5569 5568
5682 5679 5676 5673 5671 5669 5667 5665 5664 5661 5656 5653 5649 5647 5645 5643 5640 5639 5636 5633 5629 5624 5623 5621 5618 5616 5613 5610 5607 5604 5601 5597 5592 5587 5581 5577 5573 5569 5566 5561 5558 5556 5554